Location: Enid
(36.3960°N, 97.8780°W)
Time: 23:05:49
(UTC-05:00)

Hubble Space Telescope - Visible Passes

Search period start: 26 April 2015 00:00
Search period end: 06 May 2015 00:00
Orbit: 542 x 546 km, 28.5° (Epoch: 25 April)

Date Brightness Start Highest point End Pass type
(mag) Time Alt. Az. Time Alt. Az. Time Alt. Az.
29 Apr 3.0 21:25:08 10° S 21:25:33 11° SSE 21:25:33 11° SSE visible
30 Apr 2.7 21:15:27 10° S 21:17:28 13° SSE 21:18:06 13° SSE visible
01 May 2.6 21:06:13 10° SSW 21:08:47 16° SSE 21:10:30 13° SE visible
02 May 2.4 20:57:11 10° SSW 21:00:06 19° SSE 21:02:44 11° SE visible
02 May 3.1 22:37:23 10° WSW 22:38:13 14° SW 22:38:13 14° SW visible
03 May 2.3 20:48:15 10° SW 20:51:24 21° SSE 20:54:36 10° ESE visible
03 May 2.7 22:28:43 10° WSW 22:30:20 19° SW 22:30:20 19° SW visible
04 May 2.4 22:20:04 10° WSW 22:22:21 23° SSW 22:22:21 23° SSW visible
05 May 2.2 22:11:28 10° WSW 22:14:17 24° SSW 22:14:17 24° SSW visible
